This is the latest recevied weather packets stored in our database for station/object K7DC. If no packets are shown the sender has not sent any weather packets the latest 10 day(s).
| Time | Temp. | Humidity | Pressure | Rain* | Wind** | Luminosity | Snow |
|---|---|---|---|---|---|---|---|
| 1788614720 | 22.78° C | 76% | 1016.1 hPa | 0 mm | - | 24 W/m² | - |
| 1788614420 | 22.22° C | 77% | 1016.3 hPa | 0 mm | - | 17 W/m² | - |
| 1788614115 | 22.22° C | 77% | 1016.3 hPa | 0 mm | - | 11 W/m² | - |
| 1788613810 | 22.22° C | 77% | 1016 hPa | 0 mm | - | 8 W/m² | - |
| 1788613509 | 22.78° C | 76% | 1015.9 hPa | 0 mm | - | 4 W/m² | - |
| 1788613205 | 22.78° C | 75% | 1015.8 hPa | 0 mm | - | 2 W/m² | - |
| 1788612899 | 22.78° C | 74% | 1016.1 hPa | 0 mm | - | 1 W/m² | - |
| 1788612594 | 23.33° C | 72% | 1015.8 hPa | 0 mm | - | 0 W/m² | - |
| 1788612291 | 23.33° C | 70% | 1015.8 hPa | 0 mm | - | 0 W/m² | - |
| 1788611986 | 23.33° C | 71% | 1015.7 hPa | 0 mm | - | 0 W/m² | - |
| 1788611683 | 23.33° C | 72% | 1015.8 hPa | 0 mm | - | 0 W/m² | - |
| 1788611383 | 23.33° C | 71% | 1015.9 hPa | 0 mm | - | 0 W/m² | - |
| 1788611083 | 23.33° C | 71% | 1015.7 hPa | 0 mm | - | 0 W/m² | - |
| 1788610778 | 23.33° C | 72% | 1015.7 hPa | 0 mm | - | 0 W/m² | - |
| 1788610474 | 23.33° C | 72% | 1015.7 hPa | 0 mm | - | 0 W/m² | - |
| 1788610173 | 23.33° C | 72% | 1015.6 hPa | 0 mm | - | 0 W/m² | - |
| 1788609867 | 23.33° C | 73% | 1015.7 hPa | 0 mm | - | 0 W/m² | - |
| 1788609562 | 23.33° C | 73% | 1015.7 hPa | 0 mm | - | 0 W/m² | - |
| 1788609262 | 23.33° C | 73% | 1015.7 hPa | 0 mm | - | 0 W/m² | - |
| 1788608957 | 23.33° C | 73% | 1015.8 hPa | 0 mm | - | 0 W/m² | - |
| 1788608656 | 23.33° C | 73% | 1015.7 hPa | 0 mm | - | 0 W/m² | - |
| 1788608355 | 23.33° C | 73% | 1015.7 hPa | 0 mm | - | 0 W/m² | - |
| 1788608051 | 23.33° C | 72% | 1015.7 hPa | 0 mm | - | 0 W/m² | - |
| 1788607746 | 23.33° C | 73% | 1015.8 hPa | 0 mm | - | 0 W/m² | - |
| 1788607441 | 23.33° C | 73% | 1015.8 hPa | 0 mm | - | 0 W/m² | - |
* Rain latest hour (hover to see other rain measurements)
** Current wind speed in m/s (hover to see current wind gust speed)